Overview Statistics Trail Chart Weather Telemetry Raw packets
 

This is the latest recevied weather packets stored in our database for station/object DN9CHO-13. If no packets are shown the sender has not sent any weather packets the latest 10 day(s).

<< 46 47 48 49 50 51 52 >>
Time Temp. Humidity Pressure Rain* Wind** Luminosity Snow
1787874030 22.22° C 81% 1010.9 hPa 0 mm - 0 W/m² -
1787873426 22.78° C 78% 1011.3 hPa 0 mm - 0 W/m² -
1787872822 22.78° C 80% 1011.2 hPa 0 mm - 0 W/m² -
1787872219 23.33° C 78% 1011.2 hPa 0 mm - 0 W/m² -
1787871635 23.33° C 75% 1011.1 hPa 0 mm - 0 W/m² -
1787871031 23.33° C 75% 1010.6 hPa 0 mm - 0 W/m² -
1787870427 23.89° C 75% 1010.7 hPa 0 mm - 0 W/m² -
1787869824 23.89° C 75% 1010.4 hPa 0 mm - 0 W/m² -
1787869220 23.33° C 77% 1010 hPa 0 mm - 0 W/m² -
1787868616 22.78° C 78% 1009.5 hPa 0 mm - 0 W/m² -
1787868033 22.22° C 80% 1009.5 hPa 0 mm - 0 W/m² -
1787867429 22.22° C 82% 1009.2 hPa 0 mm - 0 W/m² -
1787866826 22.22° C 82% 1009.5 hPa 0 mm - 0 W/m² -
1787866222 22.22° C 82% 1009.5 hPa 0 mm - 0 W/m² -
1787865618 22.22° C 81% 1009.3 hPa 0 mm - 0 W/m² -
1787865034 22.22° C 80% 1009.5 hPa 0 mm - 0 W/m² -
1787864434 22.78° C 80% 1009.6 hPa 0 mm - 0 W/m² -
1787863827 22.78° C 79% 1009.5 hPa 0 mm - 0 W/m² -
1787863223 22.78° C 79% 1009.4 hPa 0 mm - 0 W/m² -
1787862619 22.78° C 79% 1009.6 hPa 0 mm - 0 W/m² -
1787862016 22.78° C 79% 1009.4 hPa 0 mm - 0 W/m² -
1787861432 22.78° C 79% 1010 hPa 0 mm - 0 W/m² -
1787860828 22.78° C 78% 1010 hPa 0 mm - 0 W/m² -
1787860224 22.78° C 77% 1010.2 hPa 0 mm - 0 W/m² -
1787859621 22.78° C 76% 1010.3 hPa 0 mm - 0 W/m² -

* Rain latest hour (hover to see other rain measurements)
** Current wind speed in m/s (hover to see current wind gust speed)